Regional Weather Roundup
Issued by NWS

Home | Current Version | Previous Version | Graphics & Text | Print | Product List | Glossary On
Versions: 1 2 3 4 5 6 7 8 9 10 11 12 13 14 15 16 17 18 19 20 21 22 23 24 25 26 27 28 29 30 31 32 33 34 35 36 37 38 39 40 41 42 43 44 45 46 47 48 49 50
477
ASUS45 KABQ 010101
RWRNM
NEW MEXICO REGIONAL WEATHER ROUNDUP
NATIONAL WEATHER SERVICE ALBUQUERQUE NM
700 PM MDT WED AUG 31 2016

NOTE: "FAIR" MEANS FEW OR NO CLOUDS BELOW 12,000 FEET AGL WITH NO
       SIGNIFICANT WEATHER OR OBSTRUCTIONS TO VISION.

      THIS PRODUCT IS RELEASED AS TWO VERSIONS.  ONE VERSION NEAR
      THE TOP OF THE HOUR CONTAINING PRELIMINARY DATA FROM ALBUQUERQUE
      AND OTHER STATIONS.  A FINAL VERSION WITH ADDITIONAL DATA IS
      ISSUED ABOUT 10 MINUTES AFTER THE HOUR.

NMZ501-503-504-510>518-010200-
NORTHWEST PLATEAU/NORTHCENTRAL MOUNTAINS

CITY           SKY/WX    TMP DP  RH WIND       PRES   REMARKS
FARMINGTON     FAIR      84  40  21 N5        30.14S
SANTA FE       FAIR      70  50  49 SE17G24   30.28R
TAOS           FAIR      70  43  37 SE14G21   30.31S
ANGEL FIRE     FAIR      58  48  70 S8        30.44S

$$
NMZ402-403-502-505>509-010200-
WESTCENTRAL MOUNTAINS/SOUTHWEST MOUNTAINS

CITY           SKY/WX    TMP DP  RH WIND       PRES   REMARKS
GALLUP         MOCLDY    79  42  26 NE3       30.22S
GRANTS         FAIR      78  42  27 SE6       30.26S
SILVER CITY    FAIR      71  57  61 S5        30.20F

$$
NMZ407-409-411-412-010200-
SOUTHERN DESERTS

CITY           SKY/WX    TMP DP  RH WIND       PRES   REMARKS
DEMING         FAIR      78  60  53 N7        30.12S
LAS CRUCES     CLOUDY    80  57  45 E5        30.14S
HOLLOMAN AFB   FAIR      80  58  47 N2        30.11R
ALAMOGORDO     FAIR      79  57  47 N3        30.13S
T OR C         FAIR      78  56  46 S6        30.15S

$$
NMZ519>523-010200-
CENTRAL VALLEYS/CENTRAL HIGHLANDS

CITY           SKY/WX    TMP DP  RH WIND       PRES   REMARKS
ALBUQUERQUE    FAIR      78  54  43 E20       30.19R
DOUBLE EAGLE   MOCLDY    75  54  46 E13       30.22R
MORIARTY ARPT  MOCLDY    68  54  59 SE7       30.31S
CLINES CORNERS FAIR      64  53  67 E9        30.36R
BELEN          FAIR      79  52  39 SE15      30.18R
SOCORRO        FAIR      78  53  42 S9        30.17R

$$
NMZ524>526-539-540-010200-
SOUTHCENTRAL MOUNTAINS

CITY           SKY/WX    TMP DP  RH WIND       PRES   REMARKS
RUIDOSO        NOT AVBL

$$
NMZ527>531-010200-
NORTHEAST HIGHLANDS/NORTHEAST PLAINS

CITY           SKY/WX    TMP DP  RH WIND       PRES   REMARKS
LAS VEGAS      FAIR      57  54  89 W5        30.35R
RATON          FAIR      63  53  70 SE3       30.29S
CLAYTON        FAIR      70  60  70 SE7       30.23R

$$
NMZ532>537-010200-
EASTCENTRAL PLAINS

CITY           SKY/WX    TMP DP  RH WIND       PRES   REMARKS
CANNON AFB     NOT AVBL
CLOVIS AIRPORT FAIR      68  61  77 CALM      30.21S

$$
NMZ028-029-538-010200-
SOUTHEAST PLAINS

CITY           SKY/WX    TMP DP  RH WIND       PRES   REMARKS
ROSWELL        LGT RAIN  70  66  87 W7        30.16R
ARTESIA        FAIR      73  70  88 N6        30.14S
CARLSBAD       FAIR      75  65  70 NE5       30.11S
HOBBS          FAIR      72  72 100 NE8       30.16F


$$




USA.gov is the U.S. government's official web portal to all federal, state and local government web resources and services.